Total_Precipitation_Accumulation
0.55 0.77 0.93 1.16 1.53 1.95 2.53 3.14 3.62 3.67 3.42 3.05 2.66 2.39 2.06 1.83 1.61 1.37 1.19 1.11 1.10 1.17 1.32 1.18 1.25 1.32 1.24 1.16 1.17 1.23 1.25 1.08 1.33 1.44 0.99 0.71 0.64 0.58 0.49 0.48 0.45 0.38 0.40
0.70 0.86 1.11 1.32 1.52 1.91 2.32 2.61 2.53 2.29 2.12 2.03 1.90 1.64 1.61 1.60 1.54 1.45 1.25 1.05 1.06 1.05 1.00 0.99 1.00 1.05 1.08 0.99 0.95 1.06 1.04 0.88 1.13 1.24 1.09 0.71 0.54 0.44 0.38 0.38 0.37 0.37 0.46
0.64 0.86 1.14 1.31 1.34 1.54 1.69 1.61 1.36 1.10 1.06 1.08 1.02 1.15 1.34 1.46 1.50 1.53 1.44 1.28 1.22 1.18 1.12 1.03 0.95 0.91 0.95 0.93 0.90 0.98 0.98 0.86 0.90 1.03 1.18 0.91 0.59 0.45 0.32 0.34 0.39 0.48 0.58
0.50 0.70 0.89 0.92 0.99 1.03 0.91 0.79 0.69 0.59 0.56 0.56 0.61 0.68 0.88 1.17 1.38 1.55 1.60 1.61 1.52 1.37 1.24 1.11 0.94 0.81 0.79 0.83 0.77 0.82 0.92 0.92 0.82 0.82 0.90 0.93 0.93 0.85 0.50 0.31 0.33 0.50 0.59
0.52 0.54 0.52 0.52 0.55 0.54 0.46 0.41 0.43 0.45 0.46 0.47 0.56 0.59 0.56 0.62 0.64 0.72 0.85 1.02 1.14 1.10 0.96 0.89 0.83 0.74 0.68 0.67 0.71 0.81 0.89 0.91 0.83 0.83 0.82 0.86 0.98 1.00 0.87 0.55 0.48 0.53 0.51
0.34 0.35 0.34 0.33 0.31 0.29 0.26 0.33 0.40 0.50 0.51 0.52 0.55 0.55 0.54 0.60 0.60 0.60 0.63 0.63 0.66 0.68 0.66 0.65 0.67 0.66 0.65 0.64 0.64 0.70 0.79 0.87 0.91 0.93 0.98 1.02 1.02 1.08 1.16 0.94 0.78 0.72 0.64
0.18 0.19 0.20 0.22 0.18 0.17 0.15 0.17 0.25 0.34 0.36 0.39 0.44 0.47 0.54 0.57 0.53 0.48 0.46 0.45 0.45 0.47 0.51 0.55 0.59 0.60 0.64 0.70 0.77 0.77 0.77 0.85 0.95 0.99 1.08 1.17 1.16 1.22 1.32 1.25 1.06 0.97 0.95
0.09 0.08 0.08 0.09 0.09 0.09 0.10 0.10 0.11 0.15 0.20 0.26 0.35 0.49 0.66 0.72 0.68 0.66 0.53 0.49 0.48 0.47 0.50 0.58 0.63 0.63 0.65 0.66 0.76 0.80 0.86 0.93 0.96 0.97 1.12 1.22 1.18 1.29 1.42 1.44 1.40 1.27 1.28
0.07 0.04 0.04 0.04 0.04 0.05 0.05 0.06 0.07 0.10 0.18 0.25 0.32 0.37 0.42 0.50 0.51 0.52 0.51 0.48 0.54 0.50 0.55 0.63 0.71 0.74 0.75 0.77 0.81 0.82 0.92 1.09 1.16 1.15 1.19 1.25 1.24 1.29 1.41 1.52 1.55 1.53 1.49
0.04 0.02 0.02 0.02 0.02 0.03 0.05 0.08 0.07 0.14 0.28 0.40 0.46 0.36 0.29 0.27 0.34 0.43 0.49 0.51 0.54 0.55 0.59 0.64 0.67 0.72 0.74 0.77 0.81 0.87 0.97 1.12 1.19 1.27 1.36 1.35 1.31 1.36 1.42 1.47 1.58 1.68 1.69
0.03 0.01 0.01 0.01 0.02 0.03 0.07 0.18 0.24 0.31 0.43 0.58 0.66 0.55 0.38 0.31 0.32 0.35 0.34 0.37 0.45 0.55 0.61 0.58 0.52 0.50 0.55 0.67 0.82 0.89 0.98 1.06 1.10 1.17 1.19 1.18 1.20 1.25 1.22 1.29 1.42 1.57 1.70
0.01 0.01 0.01 0.01 0.01 0.03 0.14 0.38 0.63 0.89 0.95 1.03 1.11 0.96 0.58 0.36 0.29 0.24 0.23 0.30 0.42 0.52 0.57 0.54 0.49 0.48 0.54 0.67 0.81 0.97 1.17 1.29 1.25 1.18 1.09 1.02 1.07 1.14 1.16 1.26 1.29 1.35 1.54
0.01 0.01 0.01 0.01 0.01 0.03 0.09 0.24 0.32 0.56 0.77 0.93 1.04 0.84 0.46 0.26 0.20 0.18 0.23 0.36 0.48 0.52 0.52 0.54 0.59 0.69 0.77 0.88 1.00 1.06 1.20 1.25 1.16 1.11 1.04 0.97 0.96 0.98 1.06 1.16 1.24 1.24 1.32
0.01 0.01 0.01 0.01 0.02 0.02 0.04 0.14 0.19 0.20 0.29 0.53 0.68 0.55 0.32 0.21 0.17 0.18 0.23 0.29 0.32 0.38 0.47 0.60 0.77 0.88 0.94 0.97 1.04 1.03 1.00 1.00 0.92 0.85 0.80 0.85 0.95 0.99 0.96 0.95 0.99 1.06 1.16
0.01 0.01 0.01 0.01 0.02 0.02 0.04 0.10 0.15 0.15 0.23 0.43 0.54 0.43 0.27 0.19 0.13 0.11 0.13 0.18 0.26 0.32 0.45 0.61 0.71 0.71 0.73 0.80 0.88 0.89 0.86 0.82 0.76 0.67 0.53 0.53 0.71 0.85 0.87 0.82 0.83 0.85 0.93
0.02 0.02 0.02 0.01 0.02 0.03 0.04 0.04 0.07 0.12 0.21 0.37 0.49 0.43 0.33 0.21 0.13 0.11 0.13 0.20 0.26 0.32 0.40 0.49 0.50 0.46 0.36 0.35 0.39 0.48 0.56 0.61 0.61 0.53 0.47 0.46 0.50 0.54 0.56 0.61 0.66 0.71 0.76
0.02 0.01 0.01 0.01 0.01 0.03 0.05 0.06 0.06 0.10 0.22 0.37 0.46 0.47 0.42 0.32 0.24 0.17 0.17 0.23 0.29 0.33 0.39 0.39 0.40 0.41 0.40 0.27 0.20 0.21 0.32 0.41 0.44 0.44 0.45 0.37 0.34 0.36 0.34 0.35 0.36 0.40 0.47
0.01 0.01 0.01 0.01 0.01 0.02 0.03 0.05 0.06 0.10 0.19 0.31 0.44 0.50 0.49 0.45 0.43 0.33 0.31 0.34 0.38 0.41 0.45 0.42 0.41 0.45 0.42 0.29 0.21 0.17 0.20 0.31 0.35 0.37 0.37 0.36 0.39 0.39 0.36 0.34 0.33 0.30 0.30
0.01 0.01 0.01 0.02 0.02 0.03 0.03 0.04 0.06 0.10 0.17 0.26 0.41 0.50 0.52 0.51 0.49 0.48 0.47 0.50 0.54 0.50 0.47 0.46 0.48 0.50 0.50 0.36 0.23 0.18 0.25 0.37 0.38 0.38 0.37 0.36 0.37 0.35 0.30 0.34 0.35 0.34 0.34
0.01 0.01 0.01 0.02 0.03 0.04 0.05 0.07 0.09 0.15 0.23 0.28 0.39 0.54 0.64 0.69 0.69 0.66 0.61 0.61 0.70 0.63 0.57 0.52 0.54 0.58 0.65 0.54 0.31 0.23 0.34 0.50 0.54 0.56 0.52 0.41 0.37 0.33 0.25 0.29 0.36 0.34 0.33
0.01 0.02 0.02 0.03 0.05 0.06 0.10 0.15 0.19 0.25 0.27 0.31 0.37 0.51 0.71 0.81 0.81 0.83 0.79 0.76 0.77 0.78 0.78 0.70 0.70 0.72 0.77 0.68 0.39 0.29 0.41 0.58 0.69 0.71 0.66 0.56 0.42 0.31 0.27 0.27 0.33 0.34 0.36
0.01 0.02 0.03 0.05 0.06 0.10 0.19 0.28 0.33 0.34 0.35 0.39 0.47 0.58 0.71 0.65 0.66 0.89 0.94 0.96 1.00 0.99 0.94 0.89 0.82 0.81 0.83 0.75 0.50 0.31 0.41 0.59 0.79 0.86 0.82 0.72 0.53 0.38 0.33 0.32 0.31 0.29 0.30
0.03 0.04 0.06 0.09 0.13 0.21 0.35 0.47 0.47 0.46 0.46 0.50 0.56 0.63 0.70 0.80 0.93 1.01 1.03 1.06 1.10 1.11 1.04 0.99 0.95 0.91 0.93 0.89 0.57 0.40 0.47 0.58 0.76 0.96 0.98 0.80 0.63 0.53 0.42 0.39 0.40 0.36 0.33
0.03 0.05 0.10 0.19 0.27 0.37 0.50 0.58 0.57 0.57 0.56 0.58 0.59 0.63 0.74 0.83 0.95 1.12 1.18 1.19 1.15 1.14 1.12 1.04 1.00 1.00 1.05 1.08 0.83 0.60 0.60 0.69 0.77 0.91 0.97 0.87 0.72 0.64 0.55 0.48 0.47 0.45 0.44
0.05 0.09 0.17 0.26 0.34 0.47 0.58 0.59 0.61 0.68 0.71 0.67 0.66 0.66 0.75 0.89 0.97 1.09 1.18 1.19 1.23 1.07 1.01 0.95 0.92 0.94 1.03 1.05 0.86 0.77 0.80 0.92 0.97 0.96 1.01 1.01 0.87 0.76 0.67 0.61 0.62 0.62 0.58
0.08 0.15 0.24 0.29 0.34 0.45 0.60 0.65 0.73 0.81 0.85 0.82 0.74 0.70 0.76 0.89 0.99 1.09 1.10 0.94 0.88 0.71 0.63 0.64 0.61 0.65 0.72 0.82 0.71 0.62 0.72 0.89 0.96 0.93 0.97 1.03 0.98 0.88 0.78 0.71 0.72 0.71 0.67